Regional Weather Roundup
Issued by NWS

Home | Current Version | Previous Version | Graphics & Text | Print | Product List | Glossary On
Versions: 1 2 3 4 5 6 7 8 9 10 11 12 13 14 15 16 17 18 19 20 21 22 23 24 25 26 27
000
ASUS45 KTFX 280310
RWRMT
MONTANA REGIONAL WEATHER ROUNDUP
NATIONAL WEATHER SERVICE GREAT FALLS MT
800 PM MST MON FEB 27 2017

NOTE: "FAIR" INDICATES FEW OR NO CLOUDS BELOW 12000 FEET WITH NO
SIGNIFICANT WEATHER AND/OR OBSTRUCTIONS TO VISIBILITY.

MTZ001>007-043-280400-
WEST OF THE DIVIDE

CITY           SKY/WX    TMP DP  RH WIND       PRES   REMARKS
KALISPELL      LGT SNOW  23  20  88 CALM      29.60R
MISSOULA       MOCLDY    29  23  78 NW7       29.63S WCI  22
BUTTE          CLOUDY    23  12  62 CALM      29.57R
MULLAN PASS    LGT SNOW  16  14  92 VRB5      29.46F FOG
ANACONDA         N/A     25  12  58 S8        29.58R WCI  16
DEER LODGE       N/A     21  18  86 CALM      29.60R
EUREKA           N/A     23  19  86 CALM      29.60S
HAMILTON         N/A     28  19  69 S8        29.64R WCI  20
LIBBY            N/A     25  23  93 CALM      29.59S
PLAINS           N/A     25  19  77 CALM      29.65S
RONAN            N/A     24  20  85 CALM      29.67S
$$

MTZ008-052>055-280400-
SOUTHWEST MONTANA

CITY           SKY/WX    TMP DP  RH WIND       PRES   REMARKS
BOZEMAN        PTCLDY    22  19  89 E5        29.61R
DILLON         CLEAR     21  10  62 SW8       29.59R WCI  11
W YELLOWSTONE  CLOUDY    14   9  79 SW14G24   29.60R FOG     WCI  -1
ENNIS          MOCLDY    23  10  58 S10       29.64R WCI  12
THREE FORKS      N/A     24 -15  17 CALM      29.64R
TWIN BRIDGES     N/A     26  11  53 S6        29.64R WCI  19
$$

MTZ009-010-012-014-046-048-049-054-280400-
EAST SLOPES AND CENTRAL MONTANA

CITY           SKY/WX    TMP DP  RH WIND       PRES   REMARKS
CUT BANK       PTCLDY    14  11  87 SE7       29.54S WCI   4
GREAT FALLS    CLOUDY    16  10  77 S3        29.57R
MALMSTROM AFB  CLOUDY    10  11 100 S5        29.58S
HELENA         CLEAR     17  13  84 W7        29.60R WCI   8
AUGUSTA          N/A     19  15  86 S6        29.52S WCI  10
BOWMANS CRNR     N/A     19  12  76 W9        29.53R WCI   8
CHOTEAU          N/A     16  14  93 CALM      29.56F
CONRAD           N/A     10   6  84 CALM      29.62S
POWER          MOCLDY    13  11  92 S5        29.56R
RAYNESFORD     MOCLDY    14   9  79 CALM      29.57S
ULM            MOCLDY    16  12  83 MISG      29.58S
$$

MTZ011-013-016-021-045-047-050-051-280400-
NORTH CENTRAL MONTANA

CITY           SKY/WX    TMP DP  RH WIND       PRES   REMARKS
HAVRE          CLEAR     11   8  88 SE3       29.64S
LEWISTOWN      CLOUDY    14  10  84 SE3       29.59R
N BAR RANCH      N/A     12   7  79 N5        29.61S
CHINOOK          N/A     16  10  79 E5        29.67S
DENTON           N/A     15  11  85 S12       29.56F WCI   2
FORT BENTON      N/A     21  14  73 N7        29.63S WCI  13
GEYSER         MOCLDY    13   6  73 SW8       29.57S WCI   2
GRASS RANGE      N/A      9   7  91 W5        29.58S
JUDITH GAP     FLURRIES  16  12  86 S12       29.59R WCI   3
ROY              N/A     15  13  92 MISG      29.59F
STANFORD         N/A     15  12  90 CALM      29.56S
WINIFRED         N/A     10   9  92 SE9       29.58F WCI  -2
$$

MTZ017>020-022>027-061-062-280400-
NORTHEAST MONTANA

CITY           SKY/WX    TMP DP  RH WIND       PRES   REMARKS
GLASGOW        CLOUDY    15   9  76 E12       29.76F WCI   2
JORDAN           N/A     13  10  88 NE7       29.71S WCI   3
SIDNEY         FLURRIES  13   9  84 NE6       29.82S WCI   4
WOLF POINT     CLOUDY     8   3  80 NE6       29.82R WCI  -2
PLENTYWOOD       N/A      7   1  78 E7        29.81S WCI  -5
POPLAR           N/A      9   3  78 NE5       29.82S
SCOBEY           N/A      4  -6  63 NW3       29.78R
$$

MTZ028>42-056>058-280400-
SOUTHCENTRAL AND SOUTHEAST MONTANA

CITY           SKY/WX    TMP DP  RH WIND       PRES   REMARKS
BAKER          CLOUDY    19  15  84 E14       29.73R WCI   6
BILLINGS       FLURRIES  26  18  71 E5        29.65R
LIVINGSTON     MOCLDY    22  17  81 NW6       29.58R WCI  14
MILES CITY     CLOUDY    20  15  81 NE13      29.71F WCI   7
BIG TIMBER     CLOUDY    23  23 100 SE5       29.62S FOG
FORSYTH          N/A     25  19  80 E8        29.69S WCI  16
HARLOWTON      FLURRIES  17  15  93 W8        29.62R WCI   7
LAUREL           N/A     25  13  60 NE6       29.65R WCI  18
$$

REGIONAL REPORTS...DAKOTAS

CITY           SKY/WX    TMP DP  RH WIND       PRES   REMARKS
WILLISTON      CLEAR      7   3  84 CALM      29.85R
MINOT          CLOUDY     2  -2  83 N7        29.89R WCI -11
DICKINSON      CLOUDY    14  11  87 NE7       29.77R WCI   4
BEACH            N/A    N/A N/A N/A MISG        N/A
CROSBY           N/A      3   1  92 CALM      29.88S
TIOGA            N/A      0   0 100 E6        29.85S WCI -12
WATFORD CITY     N/A      5   1  85 CALM      29.84S
BISMARCK       CLOUDY    21  16  81 NE8       29.85R WCI  11
GRAND FORKS    CLOUDY    18  10  71 N16       29.93R WCI   3
FARGO          CLOUDY    27  19  72 N17       29.85R WCI  14
BUFFALO SD       N/A     21  17  84 NE13      29.63S WCI   9
RAPID CITY     CLOUDY    28  18  66 N7        29.65S WCI  21
$$

REGIONAL REPORTS...WYOMING/IDAHO/WASHINGTON

CITY           SKY/WX    TMP DP  RH WIND       PRES   REMARKS
GILLETTE       CLOUDY    24  19  81 CALM      29.59F
SHERIDAN       CLOUDY    22  16  78 MISG      29.61R
BUFFALO WY     CLOUDY    21  11  65 W8        29.57F WCI  11
CODY           CLOUDY    28  14  55 W13G22    29.57R WCI  17
YELLOWSTONE LA   N/A      9   4  80 W9        29.58R WCI  -4
IDAHO FALLS    PTCLDY    22  17  81 S17       29.74R WCI   8
SALMON         CLOUDY    23  19  86 SE3       29.66S
BOISE          PTCLDY    30  25  81 SE8       29.78F WCI  22
SPOKANE        FLURRIES  29  25  85 SE3       29.61S
$$

REGIONAL REPORTS...ALBERTA

CITY           SKY/WX    TMP DP  RH WIND       PRES   REMARKS
EDMONTON       PTCLDY    14   3  62 S5        29.65R
CALGARY        MOCLDY    14   7  73 NE3       29.58R
LETHBRIDGE     CLOUDY    16  10  79 NW7       29.58R WCI   6
MEDICINE HAT   FLURRIES  18  10  73 E7        29.65S WCI   8
WATERTON GATE    N/A     14  10  85 N7          N/A  WCI   4
MILK RIVER       N/A     16  12  86 S8          N/A  WCI   5
ONEFOUR          N/A     19  14  79 SE7         N/A  WCI  10
$$

REGIONAL REPORTS...SASKATCHEWAN

CITY           SKY/WX    TMP DP  RH WIND       PRES   REMARKS
SWIFT CURRENT  CLOUDY    12   7  79 SE12      29.69S WCI  -2
REGINA         CLEAR      5  -2  72 SE13      29.84R WCI -12
SASKATOON      MOCLDY    12   0  57 S3        29.80R
CYPRESS HILLS    N/A     12   9  85 S12         N/A  WCI  -2
VAL MARIE        N/A     16  12  86 SE10        N/A  WCI   3
ASSINIBOIA       N/A      7   1  78 S6          N/A  WCI  -3
$$




USA.gov is the U.S. government's official web portal to all federal, state and local government web resources and services.